Effective Sunday, March 17, 2024, the National Weather Service National Data Buoy Center will discontinue its Dial-A-Buoy Interactive Voice Response system. For more information, see Service Change Notice 24-06 (PDF).

Station PRUR1 - 8452314 - Sandy Point, Prudence Island, RI Image indicating link to RSS feed of recent meteorological observations for station PRUR1


Conditions at PRUR1 as of
(10:54 pm EST on 02/24/2024)
0354 GMT on 02/25/2024:
     

Click on the graph icon in the table below to see a time series plot of the last five days of that observation.

5-day plot - Air Temperature Air Temperature (ATMP): 26.2 °F
5-day plot - Dew Point Dew Point (DEWP): 5.2 °F
5-day plot - Visibility Visibility (VIS): 5.9 nmi
NOS Water Level Observation Network Water Level
Previous observations
TIME
(EST)
5-day plot - Wind Direction
WDIR
 
5-day plot - Wind Speed
WSPD
kts
5-day plot - Wind Gust
GST
kts
5-day plot - Wave Height
WVHT
ft
5-day plot - Dominant Wave Period
DPD
sec
5-day plot - Average Wave Period
APD
sec
5-day plot - Mean Wave Direction
MWD
 
5-day plot - Atmospheric Pressure
PRES
in
5-day plot - Pressure Tendency
PTDY
in
5-day plot - Air Temperature
ATMP
°F
5-day plot - Water Temperature
WTMP
°F
5-day plot - Dew Point
DEWP
°F
5-day plot - Salinity
SAL
psu
5-day plot - Visibility
VIS
nmi
5-day plot - Tide (above MLLW)
TIDE
ft
2024-02-24 10:48 pm--------- 26.2- 4.3- 5.9-
2024-02-24 10:42 pm--------- 26.4- 5.4- 5.9-
2024-02-24 10:36 pm--------- 26.4- 5.2- 5.9-
2024-02-24 10:30 pm--------- 26.4- 5.4- 5.9-
2024-02-24 10:24 pm--------- 26.8- 6.3- 5.9-
2024-02-24 10:18 pm--------- 27.0- 6.1- 5.9-
2024-02-24 10:12 pm--------- 27.0- 3.7- 5.9-
2024-02-24 10:06 pm--------- 27.0- 3.6- 5.9-
2024-02-24 10:00 pm--------- 27.1--- 5.9-
2024-02-24 09:54 pm--------- 27.5--- 5.9-
2024-02-24 09:48 pm--------- 27.5- 4.8- 5.9-
2024-02-24 09:42 pm--------- 27.7- 3.6- 5.9-
2024-02-24 09:36 pm--------- 27.9- 3.2- 5.9-
2024-02-24 09:30 pm--------- 28.2- 5.9- 5.9-
2024-02-24 09:24 pm--------- 28.4- 5.9- 5.9-
2024-02-24 08:30 pm--------- 29.5- 6.4- 5.9-
2024-02-24 08:24 pm--------- 29.5- 5.0- 5.9-
2024-02-24 08:18 pm--------- 29.7- 5.9- 5.9-
2024-02-24 08:12 pm--------- 29.8- 5.5- 5.9-
2024-02-24 08:06 pm--------- 29.7- 5.2- 5.9-
2024-02-24 07:18 pm--------- 32.0- 4.3- 5.9-
2024-02-24 07:12 pm--------- 32.4- 3.6- 5.9-
2024-02-24 07:06 pm--------- 32.5- 3.9- 5.9-
2024-02-24 07:00 pm--------- 32.7- 4.5- 5.9-
2024-02-24 06:54 pm--------- 33.1- 4.8- 5.9-
2024-02-24 06:48 pm--------- 33.3- 5.4- 5.9-
2024-02-24 06:42 pm--------- 33.4- 5.9- 5.9-
2024-02-24 06:36 pm--------- 33.8- 6.1- 5.9-
2024-02-24 06:00 pm--------- 34.9- 6.4- 5.9-
2024-02-24 05:54 pm--------- 34.9- 7.0- 5.9-
2024-02-24 05:48 pm--------- 35.2- 7.0- 5.9-
2024-02-24 05:42 pm--------- 35.4- 7.3- 5.9-
2024-02-24 05:36 pm--------- 35.6- 8.1- 5.9-
2024-02-24 05:30 pm--------- 35.8- 9.3- 5.9-
2024-02-24 05:24 pm--------- 36.1- 9.1- 5.9-
2024-02-24 04:48 pm--------- 37.9- 11.5- 5.9-
2024-02-24 04:42 pm--------- 38.5- 9.9- 5.9-
2024-02-24 04:36 pm--------- 38.3- 9.9- 5.9-
2024-02-24 04:30 pm--------- 38.7- 9.0- 5.9-
2024-02-24 04:24 pm--------- 39.4- 9.3- 5.9-
2024-02-24 04:18 pm--------- 39.7- 9.7- 5.9-
2024-02-24 04:12 pm--------- 39.7- 9.1- 5.9-
2024-02-24 04:06 pm--------- 40.1- 9.7- 5.9-
2024-02-24 04:00 pm--------- 39.9- 9.7- 5.9-
2024-02-24 03:54 pm--------- 39.9- 10.4- 5.9-
2024-02-24 03:30 pm--------- 40.6- 15.6- 5.9-
2024-02-24 03:24 pm--------- 40.1- 16.7- 5.9-
2024-02-24 03:18 pm--------- 40.8- 18.5- 5.9-
2024-02-24 03:12 pm--------- 41.4- 19.0- 5.9-
2024-02-24 03:06 pm--------- 41.0- 20.7- 5.9-
2024-02-24 03:00 pm--------- 41.2- 21.2- 5.9-
2024-02-24 02:54 pm--------- 41.2- 22.3- 5.9-
2024-02-24 02:48 pm--------- 40.5- 21.2- 5.9-
2024-02-24 02:42 pm--------- 40.3- 23.0- 5.9-
2024-02-24 02:36 pm--------- 40.1- 21.9- 5.9-
2024-02-24 02:30 pm--------- 40.1- 23.4- 5.9-
2024-02-24 02:24 pm--------- 39.9- 23.7- 5.9-
2024-02-24 02:18 pm--------- 40.1- 24.6- 5.9-
2024-02-24 02:12 pm--------- 40.6- 25.3- 5.9-
2024-02-24 02:06 pm--------- 39.9- 24.6- 5.9-
2024-02-24 01:48 pm--------- 39.2- 25.0- 5.9-
2024-02-24 01:42 pm--------- 39.6- 25.9- 5.9-
2024-02-24 01:36 pm--------- 39.6- 26.2- 5.9-
2024-02-24 01:30 pm--------- 39.2- 25.9- 5.9-
2024-02-24 01:24 pm--------- 39.0- 26.2- 5.9-
2024-02-24 01:18 pm--------- 39.7- 27.1- 5.9-
2024-02-24 01:12 pm--------- 39.6- 27.0- 5.9-
2024-02-24 01:06 pm--------- 39.7- 27.1- 5.9-
2024-02-24 12:30 pm--------- 40.5- 28.6- 5.9-
2024-02-24 12:24 pm--------- 41.0- 28.9- 5.9-
2024-02-24 12:18 pm--------- 41.4- 29.3- 5.9-
2024-02-24 12:12 pm--------- 41.7- 30.0- 5.9-
2024-02-24 12:06 pm--------- 41.5- 29.8- 5.9-
2024-02-24 12:00 pm--------- 42.1- 30.4- 5.9-
2024-02-24 11:54 am--------- 42.3- 30.2- 5.9-
2024-02-24 11:18 am--------- 43.0- 32.2- 5.9-
2024-02-24 11:12 am--------- 42.6- 31.6- 5.9-
2024-02-24 11:06 am--------- 42.8- 31.8- 5.9-
2024-02-24 10:30 am--------- 42.8- 33.3- 5.9-
2024-02-24 10:24 am--------- 42.6- 33.4- 5.9-
2024-02-24 10:18 am--------- 42.6- 34.0- 5.9-
2024-02-24 10:12 am--------- 42.4- 34.3- 5.9-
2024-02-24 10:06 am--------- 42.3- 35.2- 5.9-
2024-02-24 09:30 am--------- 42.6- 33.4- 5.9-
2024-02-24 09:24 am--------- 42.8- 34.0- 5.9-
2024-02-24 09:18 am--------- 43.0- 35.2- 5.9-
2024-02-24 09:12 am--------- 42.4- 34.9- 5.9-
2024-02-24 09:06 am--------- 41.7- 36.1- 5.9-
2024-02-24 09:00 am--------- 41.2- 36.5- 5.9-
2024-02-24 08:54 am--------- 40.6- 36.0- 5.9-
2024-02-24 08:00 am--------- 39.9- 35.8- 5.9-
2024-02-24 07:54 am--------- 39.7- 36.0- 5.9-
2024-02-24 07:48 am--------- 39.6- 36.1- 5.9-
2024-02-24 07:42 am--------- 39.2- 36.1- 5.9-
2024-02-24 07:36 am--------- 39.0- 36.0- 5.9-
2024-02-24 07:30 am--------- 38.7- 36.0- 5.9-
2024-02-24 07:24 am--------- 38.5- 36.1- 5.9-
2024-02-24 07:00 am--------- 37.9- 35.8- 5.9-
2024-02-24 06:54 am--------- 37.8- 35.6- 5.9-
2024-02-24 06:30 am--------- 37.4- 35.4- 5.9-
2024-02-24 06:24 am--------- 37.4- 35.6- 5.9-
2024-02-24 06:18 am--------- 37.4- 35.6- 5.9-
2024-02-24 06:12 am--------- 37.2- 35.8- 5.9-
2024-02-24 06:06 am--------- 37.0- 35.6- 5.9-
2024-02-24 05:48 am--------- 37.2- 36.0- 5.9-
2024-02-24 05:42 am--------- 37.2- 36.1- 5.9-
2024-02-24 05:36 am--------- 37.2- 36.1- 5.9-
2024-02-24 05:18 am--------- 37.8- 36.5- 5.9-
2024-02-24 05:12 am--------- 37.9- 36.7- 5.9-
2024-02-24 05:06 am--------- 37.8- 36.7- 5.9-
2024-02-24 04:18 am--------- 37.8- 36.9- 5.9-
2024-02-24 04:12 am--------- 37.8- 37.0- 5.9-
2024-02-24 04:06 am--------- 37.8- 37.0- 5.9-
2024-02-24 04:00 am--------- 37.8- 37.0- 5.9-
2024-02-24 03:54 am--------- 37.9- 37.2- 4.9-
2024-02-24 03:48 am--------- 37.9- 37.2- 4.9-
2024-02-24 03:42 am--------- 38.1- 37.4- 4.9-
2024-02-24 03:36 am--------- 38.1- 37.4- 4.9-
2024-02-24 02:18 am--------- 38.8- 37.9- 4.3-
2024-02-24 02:12 am--------- 38.8- 37.9- 4.3-
2024-02-24 02:06 am--------- 39.0- 38.1- 4.3-
2024-02-24 02:00 am--------- 39.0- 38.1- 4.9-
2024-02-24 01:54 am--------- 39.0- 37.9- 5.9-
2024-02-24 01:30 am--------- 39.2- 37.9- 5.9-
2024-02-24 01:24 am--------- 39.2- 37.9- 5.9-
2024-02-24 01:00 am--------- 39.6- 38.3- 5.9-
2024-02-24 12:54 am--------- 39.6- 38.5- 5.9-
2024-02-24 12:30 am--------- 39.6- 38.7- 4.3-
2024-02-24 12:24 am--------- 39.7- 38.8- 3.2-
2024-02-24 12:18 am--------- 39.7- 38.8- 4.3-
2024-02-24 12:12 am--------- 39.7- 38.8- 4.3-
2024-02-24 12:06 am--------- 39.7- 38.8- 4.3-
2024-02-23 11:48 pm--------- 39.9- 39.0- 4.3-
2024-02-23 11:42 pm--------- 39.9- 39.0- 4.3-
2024-02-23 11:36 pm--------- 40.1- 39.2- 4.3-
2024-02-23 11:30 pm--------- 40.1- 39.4- 4.3-
2024-02-23 11:24 pm--------- 40.1- 39.4- 4.3-
2024-02-23 11:18 pm--------- 40.3- 39.6- 4.3-
2024-02-23 11:12 pm--------- 40.3- 39.6- 4.3-
2024-02-23 11:06 pm--------- 40.3- 39.6- 4.3-
2024-02-23 11:00 pm--------- 40.3- 39.6- 3.2-
2024-02-23 10:54 pm--------- 40.3- 39.6- 3.2-